Regional Weather Roundup
Issued by NWS Cleveland, OH

Home | Current Version | Previous Version | Text Only | Print | Product List | Glossary Off
Versions: 1 2 3 4 5 6 7 8 9 10 11 12 13 14 15 16 17 18 19 20 21 22 23 24 25 26 27 28 29 30 31 32 33 34 35 36 37 38 39 40 41 42 43 44 45 46 47 48 49 50

966
ASUS41 KCLE 181100
RWRCLE
OHIO REGIONAL WEATHER ROUNDUP
NATIONAL WEATHER SERVICE WILMINGTON, OH
600 AM EST SAT NOV 18 2017

NOTE: "FAIR" INDICATES FEW OR NO CLOUDS BELOW 12,000 FEET WITH NO
SIGNIFICANT WEATHER AND/OR OBSTRUCTIONS TO VISIBILITY.

OHZ001>008-015>018-024>027-034-035-043-044-181200-
   NORTHWEST OHIO

CITY           SKY/WX    TMP DP  RH WIND       PRES   REMARKS
DEFIANCE       CLOUDY    45  43  93 S3        29.55S
FINDLAY        CLOUDY    48  44  86 S9        29.56S
TOLEDO EXPRESS CLOUDY    46  46 100 VRB5      29.55F FOG
TOLEDO EXEC    CLOUDY    45  43  93 S6        29.57F FOG
LIMA           CLOUDY    48  46  93 S13       29.55F
$$

OHZ009>014-019>023-028>033-038-089-181200-
   NORTHEAST OHIO

CITY           SKY/WX    TMP DP  RH WIND       PRES   REMARKS
CLE-HOPKINS    LGT RAIN  45  41  86 S12G22    29.63F
CLE-LAKEFRONT  LGT RAIN  46  41  82 VRB5      29.61F
CUY CO. ARPT   NOT AVBL
LORAIN-ELYRIA  LGT RAIN  43  37  79 S14       29.60F
ASHTABULA      LGT RAIN  42  41  96 S12G21    29.66S FOG
AKRON-CANTON   HVY RAIN  43  39  86 S15       29.64F FOG
WOOSTER        NOT AVBL
MANSFIELD      LGT RAIN  44  42  93 S15G23    29.60F
YOUNGSTOWN     RAIN      40  38  93 S9        29.66F FOG
$$

OHZ042-051>053-060>062-070>072-077>081-181200-
  SOUTHWEST OHIO

CITY           SKY/WX    TMP DP  RH WIND       PRES   REMARKS
CINC-COVINGTON CLOUDY    57  46  66 S20G31    29.60F
CINC-LUNKEN    CLOUDY    56  46  69 S14       29.62F
HAMILTON       CLOUDY    57  45  64 SW12G18   29.61F
DAYTON         NOT AVBL
WRIGHT-PAT AFB NOT AVBL
DAYTON GENERAL CLOUDY    53  44  71 S12       29.59F
WILMINGTON     CLOUDY    52  46  80 S17G24    29.60F
$$

OHZ036-037-039>041-045>050-054>059-063>069-073>076-082>088-181200-
  CENTRAL AND SOUTHEAST OHIO

CITY           SKY/WX    TMP DP  RH WIND       PRES   REMARKS
COLUMBUS       MOCLDY    47  44  90 SE7       29.63F
OSU AIRPORT    CLOUDY    46  45  96 SE5       29.61F
BOLTON FIELD   CLOUDY    49  46  90 S9        29.63F
RICKENBACK AFB NOT AVBL
NEWARK         CLOUDY    45  41  86 VRB3      29.64F
MARION         LGT RAIN  45  41  86 S9        29.60F
LANCASTER      CLOUDY    48  44  86 S9        29.64F
ZANESVILLE     RAIN      44  40  85 CALM      29.67S FOG
NEW PHILLY     RAIN      42  40  92 SE5       29.68F FOG
$$




USA.gov is the U.S. government's official web portal to all federal, state and local government web resources and services.